Hourly Data Report for May 15, 2022

WINNIPEG THE FORKS
MANITOBA
Current Station Operator: ECCC - MSC

49°53'18.008" N
97°07'46.007" W
230.00 m
5023262
71579
XWN

Download Data

Hourly Data (May 2022)
Hourly Data Report for May 15, 2022
TIME
LST
Temp Definition
°C
Dew Point Definition
°C
Rel Hum Definition
%
Precip. Amount Definition
mm

Wind Dir Definition
10's deg

Wind Spd Definition
km/h
Visibility Definition
km
Stn Press Definition
kPa
Hmdx Definition


Wind Chill Definition


Weather Definition


00:00 9.5 3.6 66 0.0 26 6   98.10     LegendNANA
01:00 8.9 4.1 72 0.0 24 7   98.11     LegendNANA
02:00 8.3 3.6 72 0.0 26 8   98.12     LegendNANA
03:00 7.8 3.3 73 0.0 22 8   98.12     LegendNANA
04:00 7.7 2.9 72 0.0 25 8   98.12     LegendNANA
05:00 7.0 2.5 73 0.0 23 7   98.13     LegendNANA
06:00 8.2 2.8 68 0.0 25 9   98.13     LegendNANA
07:00 9.2 2.6 63 0.0 26 6   98.16     LegendNANA
08:00 9.7 3.2 64 0.0 29 5   98.17     LegendNANA
09:00 11.1 3.2 58 0.0 28 8   98.17     LegendNANA
10:00 11.1 2.7 56 0.0 31 11   98.20     LegendNANA
11:00 9.5 2.6 62 0.0 32 9   98.27     LegendNANA
12:00 11.1 2.1 54 0.0 30 10   98.28     LegendNANA
13:00 11.0 1.0 50 0.0 32 14   98.30     LegendNANA
14:00 11.9 1.4 49 0.0 31 9   98.31     LegendNANA
15:00 13.1 2.4 48 0.0 31 11   98.31     LegendNANA
16:00 12.6 1.4 46 0.0 32 13   98.31     LegendNANA
17:00 13.4 2.1 46 0.0 32 11   98.32     LegendNANA
18:00 12.9 1.9 47 0.0 33 12   98.35     LegendNANA
19:00 12.0 1.9 50 0.0 33 14   98.37     LegendNANA
20:00 10.9 1.7 53 0.0 32 9   98.42     LegendNANA
21:00 10.3 1.1 53 0.0 31 10   98.47     LegendNANA
22:00 9.1 0.9 56 0.0 32 5   98.48     LegendNANA
23:00 8.3 1.3 61 0.0 27 5   98.50     LegendNANA

Notes on Data Quality.

Legend

  • E = Estimated
  • M = Missing
  • NA = Not Available*
  • [empty] = Indicates an unobserved value
Date modified: